Baton Rouge, LA

6:32 PM CDT on May 22, 2017 (GMT -0500)
Baton Rouge Metro-Ryan

Weather History for KBTR - March, 2014

Change the Weather History Date:

Monday, March 24, 2014

  Actual Average Record
Temperature  
Mean Temperature 60 °F 63 °F  
Max Temperature 70 °F 75 °F 86 °F (1991)
Min Temperature 50 °F 52 °F 31 °F (1968)
Degree Days  
Heating Degree Days 5 4  
Month to date heating degree days 178 142  
Since 1 July heating degree days 1884 1477  
Cooling Degree Days 0 2  
Month to date cooling degree days 19 41  
Year to date cooling degree days 39 72  
Growing Degree Days 10 (Base 50)    
Moisture  
Dew Point 43 °F    
Average Humidity 57    
Maximum Humidity 77    
Minimum Humidity 37    
Precipitation  
Precipitation T in 0.14 in 5.25 in (1973)
Month to date precipitation 1.55 3.35  
Year to date precipitation 10.82 14.11  
Snow  
Snow 0.00 in - - ()
Month to date snowfall 0.0  
Since 1 July snowfall 0.4  
Snow Depth 0.00 in    
Sea Level Pressure  
Sea Level Pressure 30.08 in    
Wind  
Wind Speed 5 mph (NNE)    
Max Wind Speed 14 mph    
Max Gust Speed 16 mph    
Visibility 10 miles    
Events Rain    
T = Trace of Precipitation, MM = Missing Value Source: NWS Daily Summary

Daily Weather History Graph

Daily Weather History Graph

Search for Another Location

Airport or City:

Trip Planner

Search our weather history database for the weather conditions in past years. The results will help you decide how hot, cold, wet, or windy it might be!

Date:

Astronomy

Mar. 24, 2014 Rise Set
Actual Time 7:03 AM CDT 7:18 PM CDT
Civil Twilight 6:39 AM CDT 7:42 PM CDT
Nautical Twilight 6:11 AM CDT 8:10 PM CDT
Astronomical Twilight 5:43 AM CDT 8:39 PM CDT
Moon 2:11 AM CDT (3/24) 1:06 PM CDT (3/24)
Length of Visible Light 13h 03m
Length of Day
12h 15m
Last Quarter, 43% of the Moon is Illuminated
Mar 24
Last Quarter
Mar 30
New
Apr 7
First Quarter
Apr 15
Full
Apr 22
Last Quarter

Hourly Weather History & Observations

Time (CDT) Temp. Dew Point Humidity Pressure Visibility Wind Dir Wind Speed Gust Speed Precip Events Conditions
12:53 AM 52.0 °F 44.1 °F 74% 30.16 in 10.0 mi NE 6.9 mph - 0.00 in Rain Light Rain
1:53 AM 52.0 °F 45.0 °F 77% 30.17 in 10.0 mi North 3.5 mph - 0.00 in   Mostly Cloudy
2:53 AM 51.1 °F 44.1 °F 77% 30.16 in 10.0 mi North 4.6 mph - N/A   Overcast
3:53 AM 51.1 °F 44.1 °F 77% 30.14 in 10.0 mi North 5.8 mph - N/A   Mostly Cloudy
4:53 AM 51.1 °F 44.1 °F 77% 30.12 in 10.0 mi NNE 6.9 mph - N/A   Overcast
5:53 AM 51.1 °F 43.0 °F 74% 30.12 in 10.0 mi NNE 5.8 mph - N/A   Mostly Cloudy
6:53 AM 51.1 °F 43.0 °F 74% 30.14 in 10.0 mi NNE 3.5 mph - N/A   Overcast
7:53 AM 51.1 °F 43.0 °F 74% 30.14 in 10.0 mi NE 8.1 mph - N/A   Overcast
8:53 AM 53.1 °F 42.1 °F 66% 30.15 in 10.0 mi NE 8.1 mph - N/A   Overcast
9:53 AM 55.9 °F 39.9 °F 55% 30.14 in 10.0 mi North - - N/A   Overcast
10:53 AM 60.1 °F 39.9 °F 47% 30.14 in 10.0 mi ENE 8.1 mph - N/A   Scattered Clouds
11:53 AM 62.1 °F 41.0 °F 46% 30.11 in 10.0 mi East 6.9 mph - N/A   Mostly Cloudy
12:53 PM 64.9 °F 42.1 °F 43% 30.07 in 10.0 mi East 6.9 mph - N/A   Mostly Cloudy
1:53 PM 66.0 °F 42.1 °F 42% 30.06 in 10.0 mi Variable 4.6 mph - N/A   Mostly Cloudy
2:53 PM 68.0 °F 43.0 °F 40% 30.03 in 10.0 mi NE 5.8 mph - N/A   Overcast
3:53 PM 68.0 °F 43.0 °F 40% 30.00 in 10.0 mi ENE 6.9 mph - N/A   Mostly Cloudy
4:53 PM 69.1 °F 43.0 °F 39% 29.98 in 10.0 mi Calm Calm - N/A   Clear
5:53 PM 69.1 °F 43.0 °F 39% 29.97 in 10.0 mi NE 3.5 mph - N/A   Clear
6:53 PM 66.0 °F 44.1 °F 45% 29.99 in 10.0 mi North 4.6 mph - N/A   Clear
7:53 PM 62.1 °F 45.0 °F 53% 30.01 in 10.0 mi Calm Calm - N/A   Clear
8:53 PM 59.0 °F 46.9 °F 64% 30.01 in 10.0 mi Calm Calm - N/A   Clear
9:53 PM 59.0 °F 44.1 °F 58% 30.04 in 10.0 mi NNW 4.6 mph - N/A   Clear
10:53 PM 57.9 °F 41.0 °F 53% 30.06 in 10.0 mi NNW 4.6 mph - N/A   Clear
11:53 PM 57.0 °F 37.9 °F 49% 30.08 in 10.0 mi North 5.8 mph - N/A   Clear